Location: Unspecified
(43.1763°N, 79.4719°W)
Time: 11:43:57
(UTC-04:00)

Okean 3 - Visible Passes

Search period start: 26 April 2017 00:00
Search period end: 06 May 2017 00:00
Orbit: 577 x 604 km, 82.5° (Epoch: 24 April)

Date Brightness Start Highest point End Pass type
(mag) Time Alt. Az. Time Alt. Az. Time Alt. Az.
26 Apr 5.4 00:11:07 27° N 00:11:07 27° N 00:13:05 10° N visible
26 Apr 6.0 22:42:32 10° NE 22:42:32 10° NE 22:42:37 10° NE visible
27 Apr 5.4 00:19:04 27° NNW 00:19:04 27° NNW 00:21:14 10° N visible
27 Apr 5.6 22:50:29 15° NE 22:50:29 15° NE 22:51:38 10° NE visible
28 Apr 5.5 00:27:00 24° NW 00:27:00 24° NW 00:29:18 10° NNW visible
28 Apr 5.2 22:58:23 22° NE 22:58:23 22° NE 23:00:20 10° NNE visible
29 Apr 5.8 00:34:54 20° NW 00:34:54 20° NW 00:37:11 10° NNW visible
29 Apr 4.6 23:06:16 32° NE 23:06:16 32° NE 23:08:51 10° NNE visible
30 Apr 6.0 00:42:47 15° WNW 00:42:47 15° WNW 00:44:47 10° NW visible
30 Apr 4.1 23:14:07 48° NNE 23:14:07 48° NNE 23:17:15 10° NNE visible
01 May 6.3 00:50:49 10° WNW 00:50:52 10° WNW 00:50:55 10° WNW visible
01 May 3.8 23:21:57 60° NNW 23:21:57 60° NNW 23:25:31 10° N visible
02 May 5.4 21:53:14 14° ENE 21:53:14 14° ENE 21:54:58 10° NE visible
02 May 4.2 23:29:45 48° WNW 23:29:45 48° WNW 23:33:42 10° N visible
03 May 4.9 22:00:59 20° E 22:00:59 20° E 22:04:02 10° NE visible
03 May 4.8 23:37:30 31° W 23:37:59 32° WNW 23:41:45 10° N visible
04 May 4.3 22:08:42 29° E 22:09:05 30° E 22:12:44 10° NNE visible
04 May 5.5 23:45:13 20° W 23:46:22 22° WNW 23:49:40 10° NNW visible
05 May 3.8 22:16:23 38° SE 22:17:16 45° E 22:21:16 10° NNE visible
05 May 6.0 23:52:53 12° W 23:54:47 15° WNW 23:57:18 10° NNW visible
